TimeCDT,TemperatureF,Dew PointF,Humidity,Sea Level PressureIn,VisibilityMPH,Wind Direction,Wind SpeedMPH,Gust SpeedMPH,PrecipitationIn,Events,Conditions,WindDirDegrees,DateUTC
12:15 AM,55.4,46.4,72,30.10,10.0,NNE,6.9,-,N/A,,Clear,20,2012-10-10 05:15:00
12:35 AM,53.6,46.4,77,30.12,10.0,NNE,8.1,-,N/A,,Clear,20,2012-10-10 05:35:00
12:55 AM,53.6,44.6,72,30.12,10.0,NNE,6.9,-,N/A,,Clear,30,2012-10-10 05:55:00
1:15 AM,53.6,44.6,72,30.13,10.0,NNE,6.9,-,N/A,,Clear,20,2012-10-10 06:15:00
1:35 AM,53.6,44.6,72,30.13,10.0,NNE,6.9,-,N/A,,Clear,30,2012-10-10 06:35:00
1:55 AM,51.8,44.6,76,30.14,10.0,NNE,5.8,-,N/A,,Clear,20,2012-10-10 06:55:00
2:15 AM,51.8,44.6,76,30.15,10.0,NE,4.6,-,N/A,,Mostly Cloudy,40,2012-10-10 07:15:00
2:35 AM,51.8,44.6,76,30.15,10.0,NE,5.8,-,N/A,,Mostly Cloudy,40,2012-10-10 07:35:00
2:55 AM,51.8,44.6,76,30.15,10.0,NE,5.8,-,N/A,,Scattered Clouds,40,2012-10-10 07:55:00
3:15 AM,51.8,44.6,76,30.16,10.0,NE,5.8,-,N/A,,Clear,50,2012-10-10 08:15:00
3:35 AM,51.8,44.6,76,30.16,10.0,NE,3.5,-,N/A,,Clear,50,2012-10-10 08:35:00
3:55 AM,50.0,44.6,82,30.17,10.0,NNE,5.8,-,N/A,,Clear,30,2012-10-10 08:55:00
4:15 AM,50.0,44.6,82,30.18,10.0,NNE,4.6,-,N/A,,Scattered Clouds,20,2012-10-10 09:15:00
4:35 AM,50.0,42.8,76,30.19,10.0,NNE,5.8,-,N/A,,Mostly Cloudy,20,2012-10-10 09:35:00
4:55 AM,50.0,42.8,76,30.19,10.0,NNE,5.8,-,N/A,,Clear,30,2012-10-10 09:55:00
5:15 AM,48.2,42.8,82,30.20,10.0,NNE,5.8,-,N/A,,Clear,20,2012-10-10 10:15:00
5:35 AM,48.2,42.8,82,30.21,10.0,NNE,5.8,-,N/A,,Clear,20,2012-10-10 10:35:00
5:55 AM,46.4,41.0,81,30.22,10.0,NNE,4.6,-,N/A,,Clear,30,2012-10-10 10:55:00
6:15 AM,46.4,41.0,81,30.23,10.0,NNE,4.6,-,N/A,,Clear,30,2012-10-10 11:15:00
6:35 AM,44.6,41.0,87,30.22,10.0,NE,4.6,-,N/A,,Clear,40,2012-10-10 11:35:00
6:55 AM,44.6,41.0,87,30.22,10.0,NE,3.5,-,N/A,,Clear,40,2012-10-10 11:55:00
7:35 AM,42.8,41.0,93,30.23,10.0,Calm,Calm,-,N/A,,Clear,0,2012-10-10 12:35:00
7:55 AM,42.8,41.0,93,30.24,10.0,Calm,Calm,-,N/A,,Clear,0,2012-10-10 12:55:00
8:15 AM,44.6,41.0,87,30.25,10.0,Calm,Calm,-,N/A,,Clear,0,2012-10-10 13:15:00
8:35 AM,44.6,41.0,87,30.27,10.0,Calm,Calm,-,N/A,,Clear,0,2012-10-10 13:35:00
8:55 AM,48.2,41.0,76,30.27,10.0,ENE,3.5,-,N/A,,Clear,70,2012-10-10 13:55:00
9:15 AM,50.0,41.0,71,30.28,10.0,East,3.5,-,N/A,,Clear,80,2012-10-10 14:15:00
9:35 AM,51.8,41.0,67,30.28,10.0,ENE,4.6,-,N/A,,Clear,70,2012-10-10 14:35:00
9:55 AM,53.6,42.8,67,30.29,10.0,ENE,3.5,-,N/A,,Clear,60,2012-10-10 14:55:00
10:15 AM,55.4,42.8,63,30.29,10.0,ENE,4.6,-,N/A,,Clear,70,2012-10-10 15:15:00
10:35 AM,57.2,37.4,48,30.29,10.0,East,4.6,-,N/A,,Clear,90,2012-10-10 15:35:00
10:55 AM,59.0,37.4,45,30.29,10.0,ENE,10.4,-,N/A,,Clear,70,2012-10-10 15:55:00
11:15 AM,60.8,35.6,39,30.29,10.0,ENE,9.2,-,N/A,,Clear,70,2012-10-10 16:15:00
11:35 AM,60.8,35.6,39,30.28,10.0,ENE,9.2,-,N/A,,Clear,70,2012-10-10 16:35:00
11:55 AM,60.8,37.4,42,30.28,10.0,East,10.4,-,N/A,,Clear,80,2012-10-10 16:55:00
12:15 PM,62.6,37.4,39,30.27,10.0,NE,8.1,-,N/A,,Clear,50,2012-10-10 17:15:00
12:35 PM,62.6,37.4,39,30.27,10.0,East,10.4,-,N/A,,Clear,80,2012-10-10 17:35:00
12:55 PM,64.4,39.2,40,30.25,10.0,NE,8.1,-,N/A,,Clear,50,2012-10-10 17:55:00
1:15 PM,66.2,39.2,37,30.23,10.0,ENE,10.4,16.1,N/A,,Clear,70,2012-10-10 18:15:00
1:35 PM,66.2,37.4,35,30.23,10.0,East,6.9,-,N/A,,Clear,80,2012-10-10 18:35:00
1:55 PM,68.0,39.2,35,30.22,10.0,NE,6.9,-,N/A,,Clear,50,2012-10-10 18:55:00
2:15 PM,68.0,39.2,35,30.20,10.0,East,4.6,-,N/A,,Clear,90,2012-10-10 19:15:00
2:35 PM,68.0,41.0,37,30.20,10.0,ENE,9.2,-,N/A,,Clear,70,2012-10-10 19:35:00
2:55 PM,68.0,41.0,37,30.19,10.0,ENE,6.9,-,N/A,,Clear,70,2012-10-10 19:55:00
3:15 PM,69.8,42.8,38,30.18,10.0,ENE,8.1,-,N/A,,Clear,70,2012-10-10 20:15:00
3:35 PM,68.0,41.0,37,30.17,10.0,ENE,6.9,-,N/A,,Clear,70,2012-10-10 20:35:00
3:55 PM,69.8,42.8,38,30.17,10.0,East,5.8,-,N/A,,Clear,80,2012-10-10 20:55:00
4:15 PM,69.8,42.8,38,30.16,10.0,East,4.6,-,N/A,,Clear,80,2012-10-10 21:15:00
4:35 PM,69.8,42.8,38,30.16,10.0,ESE,4.6,-,N/A,,Clear,120,2012-10-10 21:35:00
4:55 PM,69.8,42.8,38,30.15,10.0,SE,6.9,-,N/A,,Clear,130,2012-10-10 21:55:00
5:15 PM,68.0,42.8,40,30.15,10.0,ESE,5.8,-,N/A,,Clear,120,2012-10-10 22:15:00
5:35 PM,68.0,42.8,40,30.14,10.0,ESE,5.8,-,N/A,,Scattered Clouds,120,2012-10-10 22:35:00
5:55 PM,68.0,42.8,40,30.13,10.0,ESE,5.8,-,N/A,,Clear,110,2012-10-10 22:55:00
6:15 PM,66.2,42.8,43,30.13,10.0,East,3.5,-,N/A,,Clear,90,2012-10-10 23:15:00
6:35 PM,64.4,42.8,45,30.13,10.0,SE,5.8,-,N/A,,Clear,130,2012-10-10 23:35:00
6:55 PM,62.6,42.8,48,30.13,10.0,SE,3.5,-,N/A,,Scattered Clouds,130,2012-10-10 23:55:00
7:15 PM,62.6,42.8,48,30.13,10.0,ESE,3.5,-,N/A,,Scattered Clouds,120,2012-10-11 00:15:00
7:35 PM,62.6,41.0,45,30.13,10.0,ESE,3.5,-,N/A,,Scattered Clouds,120,2012-10-11 00:35:00
7:55 PM,62.6,41.0,45,30.14,10.0,Calm,Calm,-,N/A,,Mostly Cloudy,0,2012-10-11 00:55:00
8:15 PM,62.6,42.8,48,30.14,10.0,ESE,3.5,-,N/A,,Overcast,120,2012-10-11 01:15:00
8:35 PM,62.6,42.8,48,30.14,10.0,Calm,Calm,-,N/A,,Overcast,0,2012-10-11 01:35:00
8:55 PM,62.6,42.8,48,30.14,10.0,ESE,3.5,-,N/A,,Overcast,120,2012-10-11 01:55:00
9:15 PM,60.8,42.8,52,30.13,10.0,SE,3.5,-,N/A,,Overcast,130,2012-10-11 02:15:00
9:35 PM,60.8,42.8,52,30.13,10.0,Calm,Calm,-,N/A,,Overcast,0,2012-10-11 02:35:00
9:55 PM,60.8,42.8,52,30.13,10.0,SE,3.5,-,N/A,,Overcast,130,2012-10-11 02:55:00
10:15 PM,60.8,42.8,52,30.13,10.0,Calm,Calm,-,N/A,,Overcast,0,2012-10-11 03:15:00
10:35 PM,60.8,42.8,52,30.13,10.0,SE,5.8,-,N/A,,Overcast,130,2012-10-11 03:35:00
10:55 PM,60.8,42.8,52,30.14,10.0,ESE,4.6,-,N/A,,Overcast,120,2012-10-11 03:55:00
11:15 PM,60.8,42.8,52,30.13,10.0,ESE,4.6,-,N/A,,Overcast,120,2012-10-11 04:15:00
11:35 PM,60.8,42.8,52,30.13,10.0,SE,3.5,-,N/A,,Overcast,140,2012-10-11 04:35:00
11:55 PM,60.8,42.8,52,30.13,10.0,SE,3.5,-,N/A,,Overcast,130,2012-10-11 04:55:00